Погода Ростов Великий

Погода Ростов Великий : погода сейчас, прогноз погоды и архив. Всё, что Вы хотите узнать о погоде Ростов Великий!

Хотите узнать прогноз погоды Ростов Великий? Тогда Вам сюда: Погода Ростов Великий

Поиск расширенной информации на нашем сайте:

Другие новости

Новости СМИ2

Главная страница сайта

Новости сайта

03.07.2017

Напоминаем, что на нашем специализированном сайте Метеоцентр.Азия вы можете получить высокодетализированные автоматические прогнозы погоды по пунктам России, СНГ и мира в авиационном формате (включающие направление и скорость ветра, видимость, явления погоды, количество и форму облачности, нижнюю и верхнюю границу облачности).


Погода Ростов Великий - сегодня

Время (UTC), дата Ветер
(°,м/с) 
Видим.   Явления Облачность Т
(°С)
Тd
(°С)
f(%) Тe
(°С)
Pmin
(гПа)
dP
(гПа)
Po
(мм)
O2
(г/м3)
Тmin Tmax R s Состояние
почвы
12 15.06.18 060 (СВ) 50000 м    9/6 600 м средняя 
[Cu Sc|Ac trans]
+18.9 +3.4 36 +20  1020.2  -0.2  756  284           
18 15.06.18 310 (СЗ) 50000 м    4/3 1000 м верхняя 
[Sc|Ci fib]
+14.7 +7.6 62 +16  1019.7  -0.2  756  288           
21 15.06.18 тихо ()   50000 м    3/3 1000 м 
[Sc]
+7.8 +7.6 99 +8  1019.7  0.7  756  295           
00 16.06.18 тихо ()   50000 м    3/3 1000 м 
[Sc]
+5.9 +5.2 95 +6  1021.7  0.9  757  298           
03 16.06.18 тихо ()   50000 м    4/0 средняя 
[Ac trans]
+11.3 +6.8 74 +11  1022.2  0.8  758  292  +5.4         
06 16.06.18 360 (С) 50000 м    3/0 средняя 
[Ac trans]
+18.8 +8.5 51 +20  1022.1  0.2  758  284           
09 16.06.18 340 (С) 50000 м    1/1 600 м 
[Cu hum]
+21.7 +4.9 33 +22  1021.5  -0.5  757  282           
12 16.06.18 360 (С) 50000 м    3/3 600 м 
[Cu hum]
+23.2 +5.1 31 +23  1020.7  -0.7  757  280           
18 16.06.18 340 (С) 50000 м    3/1 1000 м верхняя 
[Sc|Ci fib]
+17.4 +9.4 59 +19  1020.2  0.1  756  285           
21 16.06.18 тихо ()   50000 м    3/3 1000 м 
[Sc]
+10.9 +9.2 89 +11  1020.9  0.5  757  292           
00 17.06.18 340 (С) 50000 м    1/1 1000 м 
[Sc]
+9.9 +8.7 92 +11  1021.3  0.3  757  293           
03 17.06.18 тихо ()   50000 м    10/3 1000 м средняя, верхняя 
[Sc|Ac trans|Ci fib]
+13.3 +9.5 78 +14  1021.6  0.5  757  289  +8.7         
06 17.06.18 330 (СЗ) 50000 м    8/3 1000 м средняя 
[Sc|Ac trans]
+20.1 +10.3 53 +21  1020.9  -0.5  757  282           
09 17.06.18 350 (С) 50000 м    8/6 600 м средняя 
[Cu Sc|Ac trans]
+24.4 +10.7 42 +26  1020.1  -0.6  756  278           
12 17.06.18 300 (СЗ) 50000 м    8/5 600 м средняя 
[Cu Sc|Ac trans]
+24.3 +8.9 38 +24  1019.1  -1  756  278           
18 17.06.18 310 (СЗ) 50000 м    4/4 1000 м 
[Sc]
+19.2 +12.5 65 +26  1018.1  0.1  755  282           
21 17.06.18 340 (С) 50000 м    3/3 1000 м 
[Sc]
+13.8 +11.6 87 +18  1018.4  755  287           
00 18.06.18 330 (СЗ) 50000 м    3/3 1000 м 
[Sc]
+11.5 +10.6 94 +15  1018.7  0.2  755  290           
03 18.06.18 340 (С) 50000 м    3/1 1000 м верхняя 
[Sc|Ci fib]
+15.4 +11.8 79 +20  1018.2  -0.3  755  286  +10.7        сухая 
06 18.06.18 330 (СЗ) 50000 м    ясно 
+22.9 +11.8 50 +26  1017.3  -0.6  754  278           
09 18.06.18 220 (ЮЗ) 50000 м    ясно 
+26.7 +10.5 36 +28  1016.2  -0.9  754  275           
12 18.06.18 170 (Ю) 50000 м    3/3 600 м 
[Cu med, cong]
+27.3 +8.8 31 +27  1015.2  -0.9  753  274           
18 18.06.18 300 (СЗ) 50000 м    ясно 
+21 +14.2 65 +28  1013.7  -0.3  752  278           
21 18.06.18 тихо ()   50000 м    ясно 
+14.7 +13 90 +20  1013.9  0.1  751  285           
00 19.06.18 тихо ()   50000 м    3/0 средняя 
[Ac trans]
+12 +11.2 95 +15  1013.8  -0.2  751  288           
Время (UTC), дата Ветер
(°,м/с) 
Видим.   Явления Облачность Т
(°С)
Тd
(°С)
f(%) Тe
(°С)
Pmin
(гПа)
dP
(гПа)
Po
(мм)
O2
(г/м3)
Тmin Tmax R s Состояние
почвы

Для получения пояснительной информации подведите курсор к названию столбца.

ПОГОДА Ростов Великий - архив

Всё, что Вы хотите узнать о погоде Ростов Великий - удобно и подробно!

Выберите нужную дату (начиная с 1 января 2015* года) и нажмите кнопку "Найти".
Будут отображены архивные сводки погоды по пункту Ростов Великий, начиная с указанной даты.


Отображать данные в формате CSV (для использования в таблицах Excel)


Внимание! Наш архив погоды предназначен исключительно для личного некоммерческого использования в познавательных целях. Если Вам необходимы официальные справки о состоянии погоды (для производственных, юридических, коммерческих и т.п. целей), обращайтесь в органы Росгидромета.

*Примечание: данная дата относится к архиву по метеостанциям СССР (Россия, СНГ, Балтия).
Архив по метеостанциям Зарубежной Европы и Азии (кроме Китая) хранится 10 дней, по другим регионам земного шара (Китай, Африка, Америка, Австралия, Океания) - 1 день.

Ростов Великий - район местоположения метеостанции


Название, широта, долгота, высота метеостанции:
Ростов Великий 57.2°ш. 39.4°д. 101 м над ур. моря [Российская Федерация]

Дополнительная информация

В oтличие oт бoльшинства пoгoдных сайтoв мы публикуем пoдрoбную метеoинфoрмацию в детальнoм прoфессиoнальнoм фoрмате.

Характеристики температуры и влажнoсти вoздуха измеряются на высoте 2 м в тени вдали oт зданий и деревьев.
Скoрoсть ветра измеряется на высoте 10 м (на урoвне рoста челoвека скoрoсть ветра ниже в 1.5-2 раза). Если метеoстанция нахoдится в гoрoде или в лесу, тo скoрoсть ветра занижена на 2-4 м/с пo сравнению с oткрытым местoм. Скoрoсть ветра над акватoриями крупных рек и oзёр, а также на вершинах хoлмoв на 2-5 м/с выше, чем в oбычных услoвиях.
Атмoсфернoе давление в разных тoчках местнoсти мoжет значительнo oтличаться oт давления на метеoстанции, в зависимoсти oт услoвий рельефа (при пoдъёме на 10 м давление пoнижается примернo на 1 мм рт.ст.).